Welcome to the New NWS' Forecast!
Most changes are behind the scenes, but click here for differences you might notice.
Latest weather observations around

Bakersfield, Meadows Field Airport (KBFL)

Using English Units (Switch to International System of Units)
Date/ Time (PST) Wind (mph) Vis. (mi) Weather Sky Cond. Temp (°F) Rel. Humidity Wind Chill (°F) Heat Index (°F) Pressure Precip. (in)
Air Dwpt 6 hour Altimeter (inHg) Sea level (inHg) 1 hr 3 hr 6 hr
Max Min
Jan 21 07:54 ESE 3 10 Clear CLR 41 34     76% 39   30.33 30.33      
Jan 21 06:54 Calm 10 Clear CLR 34 30     85%     30.32 30.32      
Jan 21 05:54 ESE 3 10 Clear CLR 39 33     79% 37   30.31 30.31      
Jan 21 04:54 SE 5 10 Clear CLR 39 33     79% 36   30.3 30.3      
Jan 21 03:54 Calm 10 Clear CLR 38 33     82%     30.3 30.3      
Jan 21 02:54 E 6 10 Clear CLR 42 34     73% 38   30.3 30.29      
Jan 21 01:54 E 5 10 Clear CLR 40 34     79% 37   30.29 30.29      
Jan 21 00:54 Calm 10 Clear CLR 39 33     79%     30.27 30.27      
Jan 20 23:54 ENE 5 10 Clear CLR 43 34     70% 40   30.27 30.27      
Jan 20 22:54 E 6 10 Clear CLR 41 35     79% 37   30.26 30.26      
Jan 20 21:54 SE 6 10 Clear CLR 42 36     79% 38   30.24 30.24      
Jan 20 20:54 ENE 5 10 Clear CLR 45 35     68% 43   30.23 30.23      
Jan 20 19:54 E 7 10 Clear CLR 45 36     71% 41   30.22 30.22      
Jan 20 18:54 E 5 10 Clear CLR 49 36     61% 47   30.21 30.21      
Jan 20 17:54 ENE 6 10 Clear CLR 49 37     63% 46   30.2 30.19      
Jan 20 16:54 N 3 10 Clear CLR 52 37     57%     30.18 30.18      
Jan 20 15:54 Calm 10 Mostly Clear FEW050 52 38     59%     30.17 30.16      
Jan 20 14:54 NE 6 10 Mostly Cloudy BKN036 BKN044 53 38     56%     30.15 30.15      
Jan 20 13:54 Calm 10 Cloudy FEW035 OVC048 52 38     59%     30.15 30.14      
Jan 20 12:54 Calm 10 Mostly Cloudy SCT037 BKN049 52 39     61%     30.15 30.14      
Jan 20 11:54 Calm 10 Cloudy BKN037 OVC048 50 38     63%     30.17 30.17      
Jan 20 11:24 Calm 10 Cloudy SCT028 OVC036 50 38     63%     30.18        
Jan 20 11:11 Calm 10 Cloudy BKN029 OVC036 50 38     63%     30.18        
Jan 20 10:54 5 10 Mostly Cloudy BKN037 50 40     68% 48   30.18 30.18      
Jan 20 09:54 Calm 10 Cloudy OVC032 48 39     71%     30.19 30.18      
Jan 20 08:54 Calm 10 Mostly Cloudy BKN034 BKN075 47 40     76%     30.16 30.16      
Jan 20 07:54 Calm 10 Cloudy BKN033 BKN044 OVC070 45 40     82%     30.13 30.12      
Jan 20 06:54 Calm 10 Cloudy OVC031 45 41     86%     30.1 30.1      
Jan 20 05:54 Calm 10 Cloudy OVC033 44 40     85%     30.08 30.08      
Jan 20 04:54 Calm 10 Cloudy OVC035 43 40     89%     30.06 30.06      
Jan 20 03:54 WNW 3 10 Cloudy OVC037 44 40     85% 43   30.05 30.05      
Jan 20 02:54 WNW 3 10 Cloudy BKN039 BKN065 OVC085 45 39     80% 44   30.05 30.05      
Jan 20 01:54 NNE 9 10 Partly Cloudy SCT070 46 39     76% 41   30.04 30.04      
Jan 20 00:54 N 9 10 Partly Cloudy SCT065 46 39     76% 41   30.04 30.03      
Jan 19 23:54 NW 7 10 Clear CLR 42 38     85% 38   30.04 30.04      
Jan 19 22:54 Calm 10 Partly Cloudy FEW027 SCT038 SCT047 46 42     86%     30.05 30.04      
Jan 19 21:54 Calm 10 Partly Cloudy SCT045 47 42     83%     30.04 30.03      
Jan 19 21:14 Calm 10 Mostly Cloudy SCT023 BKN047 49 43     80%     30.03        
Jan 19 20:54 Calm 10 Cloudy BKN021 BKN026 OVC042 49 43     80%     30.03 30.03      
Notice The following observation data may not be complete
Jan 19 20:43   10 Mostly Cloudy BKN021 BKN042          %              
Jan 19 19:54 Calm 10 Mostly Cloudy FEW023 BKN030 BKN037 49 45     86%     30.02 30.02      
Jan 19 18:54 Calm 10 Cloudy OVC090 51 45     79%     30.02 30.02      
Jan 19 17:54 W 5 10 Cloudy OVC085 51 45     79%     30.02 30.02      
Jan 19 16:54 W 5 10 Cloudy BKN080 OVC095 52 45     77%     30.02 30.01      
Jan 19 15:54 W 8 10 Cloudy FEW016 SCT041 OVC065 52 45     77%     30.02 30.02     0
Jan 19 15:46 W 8 10 Cloudy SCT016 BKN040 OVC060 52 45     77%     30.03        
Jan 19 15:32 W 10 10 Cloudy BKN016 OVC060 51 45     79%     30.03        
Jan 19 14:54 W 10 10 Cloudy OVC060 51 46     83%     30.03 30.03 0    
Jan 19 13:54 WNW 14 10 Light Rain FEW013 BKN055 OVC070 51 47     86%     30.03 30.03 0    
Jan 19 13:46 W 11 10 Cloudy FEW009 SCT016 OVC060 50 47     89% 46   30.04   0    
Jan 19 13:33 W 11 10 Cloudy FEW010 FEW017 OVC060 50 47     89% 46   30.04   0    
Jan 19 13:00 W 10 8 Light Rain SCT011 OVC017 50 46     86% 46   30.05   0    
Jan 19 12:54 W 13 6 Light Rain and Fog/Mist OVC014 50 46     86% 45   30.05 30.05 0 0  
Jan 19 11:54 WNW 11 3 Light Rain BKN010 OVC014 50 46     86% 46   30.08 30.07 0    
Jan 19 11:15 WNW 10 3 Light Rain and Fog/Mist BKN005 OVC021 50 48     93% 46   30.1   0    
Jan 19 11:01 W 11 2.5 Light Rain and Fog/Mist BKN004 BKN021 OVC028 50 48     93% 46   30.11   0    
Jan 19 10:54 W 8 2.5 Light Rain and Fog/Mist SCT005 BKN020 OVC026 50 48     93% 47   30.11 30.11 0    
Jan 19 10:46 W 8 2.5 Light Rain and Fog/Mist SCT005 SCT009 OVC024 50 48     93% 47   30.11   0    
Jan 19 10:15 W 8 4 Light Rain and Fog/Mist SCT008 BKN015 OVC036 50 48     93% 47   30.12   0    
Jan 19 09:54 WNW 7 4 Light Rain and Fog/Mist BKN005 BKN017 OVC024 50 48     93% 47   30.11 30.11 0   0
Jan 19 09:26 WNW 6 2 Light Rain and Fog/Mist BKN005 BKN010 OVC022 50 48     93% 48   30.11   0    
Jan 19 09:19 W 5 3 Light Rain and Fog/Mist BKN005 BKN013 OVC024 50 48     93% 48   30.11   0    
Jan 19 09:07 WNW 8 5 Fog/Mist FEW007 OVC028 50 48     93% 47   30.11        
Jan 19 08:54 NNW 8 6 Fog/Mist FEW019 OVC032 50 48     93% 47   30.1 30.09 0    
Jan 19 07:01 NNW 16 5 Light Rain and Fog/Mist FEW006 SCT009 OVC036 50 47     89% 44   30.08   0    
Jan 19 06:54 NNW 15 4 Light Rain and Fog/Mist FEW006 BKN014 OVC036 50 47     89% 45   30.08 30.07 0 0  
Jan 19 06:44 NW 16 4 Light Rain and Fog/Mist SCT004 BKN012 OVC032 50 48     93% 44   30.08   0    
Jan 19 06:22   2 Light Rain and Fog/Mist SCT002 BKN021 OVC029 50 49     96%     30.07   0    
Jan 19 06:16   1.75 Light Rain and Fog/Mist BKN002 BKN021 OVC029 50 49     96%     30.07   0    
Jan 19 05:54 NW 9 1.25 Fog/Mist OVC002 49 48     97% 45   30.06 30.06 0    
Jan 19 05:19 NW 7 1 Fog/Mist BKN002 OVC008 49 48     97% 46   30.06   0    
Jan 19 05:02 Calm 1 Light Rain and Fog/Mist SCT004 BKN010 OVC015 49 47     93%     30.05   0    
Jan 19 04:54 Calm 1 Light Rain and Fog/Mist OVC013 49 47     93%     30.05 30.05 0    
Jan 19 04:09 E 3 1.25 Light Rain and Fog/Mist FEW001 OVC018 48 47     96% 47   30.05   0    
Jan 19 03:54 SE 5 1 Fog/Mist BKN001 OVC020 48 47     96% 46   30.05 30.04 0   0
Jan 19 03:47 SE 6 0.5 Fog VV001 48 46     93% 45   30.05   0    
Jan 19 03:33 SE 6 0.25 Light Rain and Fog BKN001 OVC037 48 46     93% 45   30.05   0    
Jan 19 03:24 SE 7 0.25 Fog BKN001 BKN037 47 46     97% 44   30.05        
Jan 19 03:18 SE 7 0.75 Fog/Mist FEW001 BKN038 48 46     93% 45   30.05        
Jan 19 03:16 SE 7 1.5 Fog/Mist FEW001 SCT038 48 46     93% 45   30.05        
Jan 19 03:12 SE 7 2.5 Fog/Mist FEW038 48 45     89% 45   30.05        
Jan 19 02:54 SSE 7 3 Fog/Mist CLR 49 45     86% 46   30.05 30.05      
Jan 19 01:54 Calm 5 Fog/Mist CLR 50 46     86%     30.05 30.04      
Jan 18 23:54 Calm 3 Fog/Mist CLR 49 46     90%     30.04 30.03      
Jan 18 22:54 Calm 4 Fog/Mist CLR 52 48     86%     30.03 30.03      
Jan 18 21:54 SE 6 4 Fog/Mist CLR 52 48     86%     30.03 30.03      
Jan 18 19:54 Calm 7 Clear CLR 53 46     77%     30.01 30.01      
Jan 18 17:54 Calm 6 Haze CLR 58 48     70%     30 29.99      
Jan 18 16:54 ESE 5 5 Haze CLR 59 48     67%     30.01 30.01      
Jan 18 15:54 SE 5 5 Haze CLR 58 48     70%     30.03 30.02      
Jan 18 14:54 Calm 4 Haze CLR 55 48     77%     30.04 30.04      
Jan 18 14:06 SE 8 3 Haze FEW009 54 48     80%     30.06        
Jan 18 13:54 SE 9 3 Haze CLR 55 48     77%     30.06 30.05      
Jan 18 13:43 SSE 9 3 Mostly Clear FEW009 55 48     77%     30.06        
Jan 18 12:54 SE 13 5 Clear CLR 58 48     70%     30.07 30.06      
Jan 18 11:54 W 8 5 Haze CLR 57 48     72%     30.11 30.1      
Jan 18 11:06 NW 9 4 Haze SCT004 53 48     83%     30.12        
Jan 18 10:54 NW 13 3 Fog/Mist BKN004 51 48     89%     30.12 30.11      
Jan 18 10:39   3 Fog/Mist OVC003 50 47     89%     30.12        
Jan 18 10:15 NNW 10 2 Fog/Mist OVC002 49 47     93% 45   30.11        
Jan 18 09:53   1.5 Fog/Mist OVC002 49 47     93%     30.12 30.12      
Jan 18 09:52 NNW 11 1.5 Fog/Mist OVC002 48 46     93% 43   30.12        
Jan 18 09:44 NW 13 0.75 Fog/Mist OVC002 47 46     97% 41   30.12        
Jan 18 09:32 NW 11 0.25 Fog VV002 47 46     97% 42   30.12        
Jan 18 08:54 NW 3 0.25 Fog VV001 46 45     96% 45   30.12 30.12      
Jun 11 23:54 N 18 10 Mostly Cloudy BKN080 61 42     50%     29.98 29.97      
Jun 11 09:54 NNW 13 10 Mostly Clear FEW039 64 43     46%     29.93 29.92      
Jun 11 07:54 NNW 15 10 Clear CLR 61 44     54%     29.91 29.9      
Jun 10 21:54 N 6 10 Clear CLR 71 46     41%   70 29.84 29.82      
Jun 10 18:54 NW 10 10 Clear CLR 77 46     33%   76 29.82 29.8      
Jun 10 15:54 W 10 10 Clear CLR 77 47     35%   76 29.85 29.84      
Jun 10 08:54 NW 8 10 Cloudy OVC048 63 43     48%     29.96 29.94      
Jun 08 21:54 NW 14 10 Clear   76 48     37%   75 29.92 29.9      
Jun 08 14:01 W 10 9 Mostly Clear FEW001 87 37     17%   84 29.94        
Jun 08 11:54 W 7 10 Clear CLR 81 46     29%   80 29.97 29.95      
Jun 08 06:54 ENE 5 10 Clear CLR 69 46     44%     29.97 29.95      
Jun 07 08:54 3 10 Clear CLR 78 45     31%   77 29.87 29.85